sat.trackr.live / text

‹ back to catalog

STARLINK-33991

NORAD 64122 · 2025-110AC

PAYLOAD ACTIVE UNKNOWN

§ Identity

Operator
Country
US
Launch date
2025-05-23
Launch site
AFWTR
Launch vehicle
Mass (kg)
RCS (m²)

Purposes: comms

External: N2YO · Heavens-Above · Gunter

§ Orbital elements

Epoch: 2026-09-20T13:28:14.799360Z

Period
94.01 min
Inclination
53.1569°
Eccentricity
0.0001279
Mean motion
15.31703814 rev/d
Perigee alt
469.9 km
Apogee alt
471.6 km
Semi-major
6,848.9 km
B*
4.3224e-5
RAAN
199.7945°
Arg perigee
90.9007°
Mean anomaly
269.2141°
Rev number
7,573

§ Raw data

STARLINK-339911 64122U 25110AC  26263.56128240  .00000976  00000+0  43224-4 0  99912 64122  53.1569 199.7945 0001279  90.9007 269.2141 15.31703814 75734

JSON: /api/v1/satellites/64122 · /tle

For live sub-satellite position, see the globe view (requires WebGL).

§ Visibility from observer

Set your observer location to see the next 7 days of passes ≥ 10°. The values pass through the URL so the page stays shareable.

No JS? Fill the form by hand. The geolocation button needs JavaScript.